Other Public Products
Issued by NWS Charleston, SC

Current Version | Previous Version | Graphics & Text | Print | Product List | Glossary On
Versions: 1 2 3 4 5 6 7 8 9 10 11 12 13 14 15 16 17 18 19 20 21 22 23 24 25 26 27 28 29 30 31 32 33 34 35 36 37 38 39 40 41 42 43 44 45 46 47 48 49 50
032
FPUS82 KCHS 250813
OPUCHS

TEST...KCHS/KSAV Gateway Observations...TEST
National Weather Service Charleston SC
400 AM EDT FRI MAY 25 2018

NOTE: "fair" indicates few or no clouds below 12,000 feet with no
significant weather and/or obstructions to visibility.

SCZ050-WAZ558-NCZ071-TXZ119-213-PAZ071-DCZ001-FLZ074-172-MI076-
NYZ176-178-MAZ016-IL014-TNZ027-NJZ106-GAZ044-MD014-250900-

...Gateway Observations for Charleston International...

CITY           SKY/WX    TMP DP  RH WIND       PRES   REMARKS
Chas Airport   FAIR      72  71  97 CALM      30.08F
Seattle        PTCLDY    55  49  80 N6        30.04S
Charlotte      CLOUDY    71  70  96 SE5       30.12F
Dallas DFW     PTCLDY    78  69  73 S12       29.96F
Dallas Love    PTCLDY    79  69  71 S7        29.97F
Philladelphia  FAIR      62  56  80 S3        30.09F
Wash National  FAIR      66  60  81 S5        30.11F
Baltimore      FAIR      58  53  84 W3        30.09F
Miami          CLOUDY    78  75  90 SE8       29.99F
Detroit        FAIR      61  52  72 CALM      30.05F
Newark         FAIR      62  50  64 SW7       30.05F
Laguardia      FAIR      70  50  49 SW9       30.05S
J F K          FAIR      61  54  77 SW8       30.07F
Boston Logan   FAIR      54  48  80 SW10      29.97F
Ft. Lauderdale LGT RAIN  77  75  94 SE12      29.98F
Chicago O`Hare FAIR      69  51  52 S7        29.99F
Chicago Midway FAIR      70  50  49 S6        29.99F
Houston Bush   FAIR      72  71  97 CALM      29.99F
Houston Hobby  FAIR      73  73 100 CALM      29.98F
Nashville      MOCLDY    70  65  84 CALM      30.02F
Atlanta        CLOUDY    71  67  87 E7        30.06F

$$

GAZ044-118-TXZ119-213-NCZ071-DCZ001-MDZ014-506-PAZ021-071-NJZ106-
NYZ176-178-MAZ106-OHZ011-021-055-MIZ076-KYZ091-ILZ014-INZ047-
MNZ060-ONZ431-250900-

...Gateway Observations for Savannah International...

CITY           SKY/WX    TMP DP  RH WIND       PRES   REMARKS
Savannah Arpt  FAIR      74  73  97 E5        30.06F
Atlanta        CLOUDY    71  67  87 E7        30.06F
Charlotte      CLOUDY    71  70  96 SE5       30.12F
Dallas DFW     PTCLDY    78  69  73 S12       29.96F
Houston Bush   FAIR      72  71  97 CALM      29.99F
Wash National  FAIR      66  60  81 S5        30.11F
Wash Dulles    FAIR      61  54  77 S6        30.10F
Baltimore      FAIR      58  53  84 W3        30.09F
Philadelphia   FAIR      62  56  80 S3        30.09F
Newark         FAIR      62  50  64 SW7       30.05F
Laguardia      FAIR      70  50  49 SW9       30.05S
J F K          FAIR      61  54  77 SW8       30.07F
Boston         FAIR      54  48  80 SW10      29.97F
Pittsburg      FAIR      56  53  90 CALM      30.08S
Akron          FAIR      58  51  78 CALM      30.08F
Cleveland      FAIR      56  51  84 CALM      30.08F
Cincinnati     FAIR      61  54  77 CALM      30.05S
Columbus       FAIR      58  56  90 MISG      30.06R
Detroit        FAIR      61  52  72 CALM      30.05F
Chicago O`Hare FAIR      69  51  52 S7        29.99F
Minneapolis    CLOUDY    72  64  76 W9        29.88  THUNDER
Indianapolis   FAIR      67  54  63 CALM      30.04F
Toronto Canada MOCLDY    64  46  52 W9        29.98F

$$




USA.gov is the U.S. government's official web portal to all federal, state and local government web resources and services.